[[{"header":{"parameterUnit":"m.s-1","parameterCategory":2,"la1":30.2991,"la2":30.254,"lo1":-89.0895,"lo2":-89.0444,"dy":0.0017,"dx":0.0017,"nx":28,"ny":28,"refTime":"2023-10-04T21:00:00:Z","depth":"0","parameterNumber":2,"parameterNumberName":"U-component_of_CURRENTS"},"data":[0,0,0,0,0,0,0,0,0,0,0,0,0,0,0,0,0,0,0,0,0,0,0,0,0,0,0,0,0,0,0,0,0,0,0,0,0,0,0,0,0,0,0,0,0,0,0,0,0,0,0,0,0,0,0,0,0,0,-0.2246,-0.2246,0,-0.226,-0.226,-0.226,-0.2195,-0.2193,-0.2191,-0.2189,-0.2152,-0.2153,-0.2154,0,0,0,0,0,0,0,0,0,0,0,0,0,-0.2136,-0.2139,-0.2246,-0.2246,-0.2247,-0.226,-0.226,-0.2261,-0.2195,-0.2193,-0.219,-0.2188,-0.2152,-0.2153,-0.2154,0,0,0,0,0,0,0,0,0,0,0,0,0,-0.2169,-0.2139,-0.2246,-0.2217,-0.2214,-0.226,-0.226,-0.2261,-0.2195,-0.2193,-0.219,-0.2187,-0.2152,-0.2153,-0.2154,-0.2214,0,0,-0.2157,-0.2158,0,0,0,0,0,0,0,0,-0.2168,-0.2173,-0.2221,-0.2219,-0.2216,-0.2224,-0.2208,-0.2243,-0.2196,-0.2201,-0.2189,-0.2186,-0.2175,-0.2174,-0.2181,-0.2212,-0.2211,-0.2157,-0.2158,-0.2158,-0.2159,0,0,0,0,0,0,0,-0.2165,-0.2172,-0.225,-0.2221,-0.2219,-0.2194,-0.2196,-0.2215,-0.22,-0.22,-0.2196,-0.2201,-0.2172,-0.218,-0.2179,-0.221,-0.2157,-0.2158,-0.2159,-0.2159,-0.2258,-0.226,0,0,0,0,0,0,-0.2172,-0.2171,-0.225,-0.2251,-0.2186,-0.2199,-0.22,-0.2223,-0.2201,-0.2196,-0.2203,-0.2198,-0.218,-0.2178,-0.2178,-0.2242,-0.2158,-0.2159,-0.216,-0.2256,-0.2259,-0.2261,0,0,0,0,0,0,-0.217,-0.218,-0.2249,-0.221,-0.2218,-0.2204,-0.2229,-0.2225,-0.2227,-0.2204,-0.2197,-0.2209,-0.2178,-0.2176,-0.2196,-0.2239,-0.216,-0.2161,-0.2254,-0.2257,-0.226,-0.2373,0,0,0,0,0,0,-0.2167,-0.2179,-0.2195,-0.2212,-0.222,-0.228,-0.2232,-0.2227,-0.2235,-0.2228,-0.2208,-0.2202,-0.2175,-0.2195,-0.2197,-0.2239,-0.2161,-0.2251,-0.2255,-0.2259,-0.2366,-0.2379,-0.239,0,0,0,0,0,-0.2163,-0.2194,-0.2197,-0.2206,-0.2245,-0.2281,-0.2284,-0.2262,-0.2239,-0.2252,-0.2236,-0.2202,-0.2219,-0.2198,-0.22,-0.2243,-0.2249,-0.2254,-0.2258,-0.2361,-0.2377,-0.239,0,0,0,0,0,0,-0.2142,-0.2192,-0.2194,-0.2235,-0.2259,-0.227,-0.228,-0.2275,-0.2277,-0.2263,-0.2234,-0.2229,-0.226,-0.2242,-0.2218,-0.2282,-0.2228,-0.2233,-0.2305,-0.232,-0.2331,-0.2348,-0.2162,0,0,0,0,0,-0.2153,-0.2191,-0.2229,-0.2257,-0.2276,-0.2284,-0.2295,-0.2288,-0.2293,-0.229,-0.2278,-0.227,-0.2287,-0.2292,-0.2293,-0.234,-0.2307,-0.2367,-0.2379,-0.2389,-0.2404,-0.242,-0.2434,-0.2276,-0.2276,-0.2276,0,0,-0.2146,-0.2181,-0.2198,-0.2256,-0.227,-0.232,-0.2283,-0.2307,-0.2344,-0.229,-0.2324,-0.2312,-0.2307,-0.2348,-0.2361,-0.2335,-0.2409,-0.2395,-0.2404,-0.2413,-0.2426,-0.2441,-0.2455,-0.2279,-0.2278,-0.2278,0,0,-0.2142,-0.2193,-0.2215,-0.2268,-0.2308,-0.2335,-0.2349,-0.2375,-0.2379,-0.242,-0.2391,-0.2412,-0.2424,-0.244,-0.2449,-0.2536,-0.2469,-0.2525,-0.2606,-0.2622,-0.2635,-0.2646,-0.2587,-0.2593,-0.2535,-0.2535,-0.2535,0,-0.2126,-0.2181,-0.2224,-0.2278,-0.2336,-0.2352,-0.2408,-0.2434,-0.2456,-0.248,-0.2437,-0.249,-0.2478,-0.2558,-0.2576,-0.2566,-0.2529,-0.2553,-0.2638,-0.2648,-0.2658,-0.2595,-0.26,-0.2541,-0.254,-0.254,-0.2539,0,-0.2149,-0.2208,-0.2235,-0.2325,-0.2395,-0.2447,-0.2516,-0.2554,-0.2564,-0.2585,-0.2643,-0.2634,-0.2657,-0.2669,-0.2648,-0.2725,-0.2658,-0.2648,-0.2602,-0.2681,-0.2609,-0.2611,-0.2549,-0.2547,-0.2546,-0.2544,0,0,-0.2084,-0.2218,-0.2233,-0.2299,-0.2437,-0.2495,-0.2591,-0.268,-0.2722,-0.275,-0.28,-0.2852,-0.2826,-0.2835,-0.2818,-0.2843,-0.2864,-0.2776,-0.2774,-0.2716,-0.2838,-0.2709,-0.2698,-0.2864,-0.2866,-0.2868,-0.2745,0,-0.2085,-0.2177,-0.2274,-0.2404,-0.2472,-0.2587,-0.268,-0.2771,-0.281,-0.2854,-0.2886,-0.2909,-0.2897,-0.2887,-0.2925,-0.2873,-0.2882,-0.2894,-0.2771,-0.2766,-0.2643,-0.2702,-0.2598,-0.2475,-0.2747,-0.2748,-0.2748,0,-0.2076,-0.2158,-0.2253,-0.2456,-0.2501,-0.258,-0.275,-0.2836,-0.2927,-0.295,-0.3004,-0.2993,-0.3043,-0.2998,-0.2996,-0.2996,-0.2931,-0.2894,-0.2888,-0.2736,-0.2644,-0.2448,-0.2468,-0.2456,-0.2751,-0.2751,-0.2751,0,-0.199,-0.2164,-0.2237,-0.231,-0.2517,-0.2585,-0.2699,-0.2832,-0.289,-0.298,-0.2977,-0.3066,-0.3022,-0.3043,-0.2948,-0.2972,-0.2895,-0.2914,-0.2743,-0.2728,-0.2601,-0.2573,-0.2599,-0.2918,-0.2918,-0.2918,-0.2919,0,-0.1968,-0.2045,-0.2186,-0.2238,-0.2356,-0.2532,-0.2634,-0.2749,-0.2854,-0.2882,-0.2985,-0.2961,-0.3026,-0.2976,-0.2954,-0.2824,-0.2894,-0.2761,-0.2709,-0.263,-0.2608,-0.2557,-0.2581,-0.2914,-0.2915,-0.2916,-0.2916,0,-0.1866,-0.1948,-0.2049,-0.2239,-0.2298,-0.2377,-0.2573,-0.2619,-0.2742,-0.2764,-0.2777,-0.2846,-0.2786,-0.2807,-0.2772,-0.2754,-0.2642,-0.2627,-0.2488,-0.2425,-0.2296,-0.2328,-0.2267,-0.2207,-0.2462,-0.2458,-0.2455,0,-0.1827,-0.1846,-0.2002,-0.2031,-0.2106,-0.224,-0.2305,-0.2514,-0.2548,-0.2653,-0.2616,-0.2596,-0.2546,-0.2466,-0.2444,-0.2394,-0.2424,-0.2264,-0.233,-0.2279,-0.228,-0.2308,-0.2266,-0.2182,-0.2177,-0.2173,-0.2169,0,-0.1759,-0.1771,-0.1833,-0.1885,-0.1942,-0.205,-0.2151,-0.2176,-0.2362,-0.2371,-0.235,-0.2334,-0.2262,-0.218,-0.2126,-0.2096,-0.2222,-0.2175,-0.2189,-0.2124,-0.2093,-0.201,-0.2225,-0.2133,-0.2136,-0.2139,-0.2141,-0.2143,-0.1671,-0.1671,-0.1695,-0.1746,-0.1798,-0.1833,-0.1862,-0.1939,-0.1981,-0.1998,-0.2053,-0.2011,-0.2013,-0.1934,-0.1892,-0.1811,-0.1896,-0.1817,-0.187,-0.191,-0.1848,-0.1943,-0.176,-0.1761,-0.1763,-0.1764,-0.1765,0,-0.158,-0.1562,-0.1573,-0.1608,-0.1593,-0.1684,-0.1735,-0.1721,-0.1691,-0.1735,-0.1717,-0.1729,-0.1658,-0.1683,-0.1629,-0.1572,-0.1573,-0.1548,-0.1611,-0.1591,-0.172,-0.1705,-0.142,-0.142,-0.142,-0.142,-0.142,-0.142,-0.1519,-0.1468,-0.1467,-0.14,-0.1412,-0.1373,-0.1373,-0.1346,-0.1367,-0.1336,-0.137,-0.1443,-0.1495,-0.1629,-0.1554,-0.1481,-0.1486,-0.1404,-0.1453,-0.1601,-0.1633,-0.1663,-0.1657,-0.1366,-0.1366,-0.1269,-0.1269,-0.1269]},{"header":{"parameterUnit":"m.s-1","parameterCategory":2,"la1":30.2991,"la2":30.254,"lo1":-89.0895,"lo2":-89.0444,"dy":0.0017,"dx":0.0017,"nx":28,"ny":28,"refTime":"2023-10-04T21:00:00:Z","depth":"0","parameterNumber":3,"parameterNumberName":"V-component_of_CURRENTS"},"data":[0,0,0,0,0,0,0,0,0,0,0,0,0,0,0,0,0,0,0,0,0,0,0,0,0,0,0,0,0,0,0,0,0,0,0,0,0,0,0,0,0,0,0,0,0,0,0,0,0,0,0,0,0,0,0,0,0,0,0.017,0.017,0,0.0228,0.0229,0.0229,0.0261,0.0261,0.0261,0.0261,0.0344,0.0346,0.0349,0,0,0,0,0,0,0,0,0,0,0,0,0,0.0079,0.0081,0.017,0.017,0.0171,0.0228,0.0229,0.0229,0.0261,0.0261,0.0261,0.0262,0.0344,0.0346,0.0349,0,0,0,0,0,0,0,0,0,0,0,0,0,0.0126,0.0081,0.0169,0.0194,0.0197,0.0228,0.0229,0.023,0.0261,0.0261,0.0261,0.0262,0.0343,0.0346,0.0349,0.0364,0,0,0.0359,0.036,0,0,0,0,0,0,0,0,0.0123,0.0129,0.019,0.0193,0.0196,0.0238,0.0227,0.0276,0.0261,0.0236,0.0261,0.0262,0.0311,0.0317,0.0326,0.0368,0.0372,0.0359,0.0361,0.0362,0.0363,0,0,0,0,0,0,0,0.012,0.0126,0.0192,0.0191,0.0194,0.0201,0.0207,0.0237,0.0272,0.0238,0.0241,0.0248,0.0313,0.0323,0.0329,0.0373,0.0359,0.0362,0.0363,0.0365,0.0456,0.0457,0,0,0,0,0,0,0.0114,0.0124,0.019,0.0194,0.016,0.0202,0.021,0.0224,0.0271,0.0278,0.0248,0.025,0.0318,0.0325,0.0332,0.0365,0.0362,0.0365,0.0367,0.0456,0.0456,0.0457,0,0,0,0,0,0,0.0112,0.012,0.0188,0.016,0.0169,0.0204,0.0219,0.0225,0.0234,0.0278,0.0286,0.0251,0.0318,0.0327,0.0356,0.0368,0.0366,0.0369,0.0455,0.0456,0.0457,0.0424,0,0,0,0,0,0,0.0109,0.0119,0.0119,0.016,0.0171,0.0195,0.0219,0.0226,0.0239,0.0241,0.0284,0.0292,0.0319,0.0351,0.0359,0.0372,0.0372,0.0454,0.0455,0.0456,0.0424,0.0423,0.0423,0,0,0,0,0,0.0106,0.0101,0.0119,0.0127,0.0173,0.0195,0.02,0.0225,0.0238,0.0235,0.027,0.029,0.0364,0.0354,0.0363,0.0378,0.0454,0.0455,0.0456,0.0425,0.0424,0.0423,0,0,0,0,0,0,0.0044,0.0105,0.0126,0.0135,0.0161,0.02,0.0199,0.0221,0.0246,0.0248,0.0292,0.0303,0.0334,0.0359,0.0347,0.0408,0.0415,0.0418,0.0387,0.0387,0.0386,0.0371,0.0374,0,0,0,0,0,0.0037,0.0056,0.0106,0.0108,0.0123,0.0162,0.0172,0.0191,0.0222,0.0233,0.0266,0.0306,0.0347,0.0367,0.04,0.0429,0.0451,0.0447,0.0446,0.0446,0.0441,0.0486,0.0489,0.0461,0.0461,0.0461,0,0,0.0007,0.0046,0.0052,0.0097,0.0121,0.0131,0.0168,0.0179,0.0191,0.0239,0.0259,0.03,0.0353,0.0387,0.0405,0.041,0.0464,0.0447,0.0446,0.0441,0.0488,0.0491,0.0493,0.0462,0.0462,0.0462,0,0,-0.0036,-0.0,0.0006,0.0031,0.007,0.0097,0.01,0.0142,0.0166,0.0192,0.0238,0.0285,0.0332,0.0383,0.0414,0.043,0.0456,0.044,0.0429,0.0473,0.0476,0.0478,0.0501,0.0506,0.0444,0.0444,0.0444,0,-0.0076,-0.0055,0.0003,0.0016,0.0025,0.008,0.0074,0.011,0.0154,0.018,0.0189,0.0288,0.0333,0.0399,0.0408,0.0429,0.0446,0.0426,0.0471,0.0474,0.0477,0.05,0.0506,0.0442,0.0443,0.0443,0.0443,0,-0.0105,-0.0095,-0.0094,-0.0052,-0.0034,-0.0036,0.0025,0.0049,0.0084,0.0128,0.0192,0.0261,0.0319,0.0352,0.0385,0.044,0.0441,0.046,0.0469,0.0478,0.0502,0.0508,0.044,0.0441,0.0441,0.0442,0,0,-0.0186,-0.0127,-0.013,-0.013,-0.0073,-0.0071,-0.0033,0.0014,0.0036,0.0102,0.0137,0.0234,0.028,0.0318,0.0379,0.0429,0.0472,0.0449,0.0452,0.0462,0.055,0.0566,0.0574,0.0494,0.0495,0.0496,0.0555,0,-0.0235,-0.0238,-0.0187,-0.0211,-0.0213,-0.0147,-0.0119,-0.0063,-0.0005,0.0045,0.0153,0.0203,0.0267,0.0293,0.0359,0.0444,0.0488,0.0453,0.0547,0.055,0.0556,0.0583,0.0617,0.0674,0.0561,0.0562,0.0563,0,-0.0274,-0.0276,-0.0296,-0.0283,-0.0278,-0.0275,-0.023,-0.0201,-0.009,-0.0041,0.0048,0.0127,0.0232,0.0269,0.0421,0.0391,0.0462,0.0527,0.0531,0.0561,0.0579,0.0651,0.0691,0.0831,0.0573,0.0572,0.0571,0,-0.0354,-0.0356,-0.038,-0.0376,-0.0341,-0.0335,-0.0319,-0.0227,-0.0202,-0.0097,-0.007,0.0072,0.0129,0.0251,0.0402,0.0405,0.0551,0.0573,0.0654,0.0655,0.0712,0.0716,0.0893,0.0663,0.0663,0.0663,0.0663,0,-0.0415,-0.0442,-0.0424,-0.0438,-0.0481,-0.0419,-0.0429,-0.0378,-0.03,-0.0272,-0.0128,-0.0078,0.0125,0.0244,0.0376,0.0537,0.0534,0.0655,0.0678,0.0701,0.0703,0.0849,0.09,0.0665,0.0665,0.0664,0.0664,0,-0.0482,-0.0465,-0.0506,-0.0503,-0.0511,-0.054,-0.0526,-0.0518,-0.0436,-0.0396,-0.037,-0.0194,-0.0028,0.017,0.0371,0.0494,0.0735,0.0698,0.0701,0.0725,0.0931,0.0978,0.114,0.1226,0.08,0.0801,0.0801,0,-0.0513,-0.0535,-0.0572,-0.0605,-0.0608,-0.064,-0.0647,-0.0594,-0.0577,-0.0464,-0.0447,-0.028,-0.0131,0.0175,0.0422,0.0659,0.0771,0.0808,0.0834,0.0955,0.1025,0.1049,0.1111,0.0894,0.0896,0.0897,0.0898,0,-0.0582,-0.0585,-0.0615,-0.0686,-0.0722,-0.077,-0.0777,-0.0787,-0.0703,-0.0647,-0.0534,-0.0409,-0.009,0.0226,0.0533,0.0673,0.0917,0.0838,0.0981,0.113,0.1151,0.124,0.0824,0.0908,0.0907,0.0906,0.0906,0.0905,-0.0629,-0.0671,-0.0699,-0.0766,-0.0816,-0.0865,-0.0894,-0.0873,-0.0847,-0.073,-0.0604,-0.038,0.0083,0.0542,0.0706,0.1053,0.1011,0.1158,0.1207,0.122,0.1308,0.0899,0.0998,0.0997,0.0997,0.0996,0.0996,0,-0.0687,-0.0716,-0.0779,-0.085,-0.091,-0.0918,-0.0949,-0.094,-0.09,-0.0745,-0.0597,-0.0089,0.0352,0.076,0.1259,0.1433,0.1481,0.1504,0.1572,0.1622,0.1287,0.1298,0.1445,0.1445,0.1445,0.1445,0.1444,0.1444,-0.0715,-0.0776,-0.0801,-0.0904,-0.0951,-0.1012,-0.1025,-0.0989,-0.0882,-0.0613,-0.0327,-0.0074,0.0516,0.1325,0.1772,0.1798,0.1961,0.1912,0.2003,0.1796,0.1768,0.1742,0.1768,0.2012,0.2012,0.2338,0.2341,0.2343]}],[{"header":{"parameterUnit":"m.s-1","parameterCategory":2,"la1":30.2991,"la2":30.254,"lo1":-89.0895,"lo2":-89.0444,"dy":0.0017,"dx":0.0017,"nx":28,"ny":28,"refTime":"2023-10-04T21:00:00:Z","depth":"2","parameterNumber":2,"parameterNumberName":"U-component_of_CURRENTS"},"data":[0,0,0,0,0,0,0,0,0,0,0,0,0,0,0,0,0,0,0,0,0,0,0,0,0,0,0,0,0,0,0,0,0,0,0,0,0,0,0,0,0,0,0,0,0,0,0,0,0,0,0,0,0,0,0,0,0,0,-0.185,-0.185,0,-0.1875,-0.1875,-0.1875,-0.1873,-0.1872,-0.1872,-0.1872,-0.1885,-0.1886,-0.1886,0,0,0,0,0,0,0,0,0,0,0,0,0,-0.1866,-0.1865,-0.185,-0.185,-0.1851,-0.1874,-0.1875,-0.1875,-0.1873,-0.1872,-0.1872,-0.1871,-0.1885,-0.1886,-0.1886,0,0,0,0,0,0,0,0,0,0,0,0,0,-0.1871,-0.1865,-0.185,-0.1853,-0.1853,-0.1874,-0.1875,-0.1875,-0.1873,-0.1872,-0.1872,-0.1871,-0.1885,-0.1885,-0.1886,-0.1903,0,0,-0.189,-0.189,0,0,0,0,0,0,0,0,-0.1871,-0.187,-0.1852,-0.1853,-0.1853,-0.187,-0.1885,-0.1884,-0.1873,-0.1865,-0.1872,-0.1871,-0.188,-0.1881,-0.1886,-0.1903,-0.1904,-0.189,-0.189,-0.1891,-0.1891,0,0,0,0,0,0,0,-0.187,-0.187,-0.1859,-0.1852,-0.1853,-0.1875,-0.1875,-0.1885,-0.1874,-0.1865,-0.1865,-0.1869,-0.188,-0.1885,-0.1887,-0.1904,-0.189,-0.189,-0.1891,-0.1891,-0.2021,-0.2024,0,0,0,0,0,0,-0.1865,-0.1869,-0.1858,-0.186,-0.1862,-0.1875,-0.1874,-0.1865,-0.1874,-0.1875,-0.187,-0.1869,-0.1884,-0.1885,-0.1887,-0.1989,-0.1891,-0.1892,-0.1892,-0.2018,-0.2022,-0.2025,0,0,0,0,0,0,-0.1865,-0.1864,-0.1857,-0.1866,-0.1867,-0.1875,-0.1865,-0.1866,-0.1872,-0.1878,-0.1878,-0.1875,-0.1884,-0.1886,-0.1935,-0.1986,-0.1892,-0.1893,-0.2015,-0.2019,-0.2023,-0.2141,0,0,0,0,0,0,-0.1865,-0.1863,-0.1866,-0.1865,-0.1866,-0.1893,-0.1865,-0.1867,-0.1875,-0.1875,-0.1883,-0.1883,-0.1883,-0.1934,-0.1936,-0.1986,-0.1894,-0.2011,-0.2017,-0.2022,-0.2133,-0.2148,-0.2161,0,0,0,0,0,-0.1866,-0.1867,-0.1865,-0.1865,-0.1865,-0.1895,-0.1899,-0.1902,-0.1876,-0.19,-0.1915,-0.1883,-0.1969,-0.1937,-0.1939,-0.1991,-0.2009,-0.2015,-0.2021,-0.2127,-0.2145,-0.2161,0,0,0,0,0,0,-0.1874,-0.1867,-0.1865,-0.1863,-0.189,-0.1895,-0.1911,-0.1904,-0.193,-0.1931,-0.1919,-0.1924,-0.1986,-0.1973,-0.1938,-0.2045,-0.1983,-0.199,-0.2063,-0.208,-0.2094,-0.2078,-0.1895,0,0,0,0,0,-0.1877,-0.1876,-0.1886,-0.189,-0.19,-0.1904,-0.1915,-0.1924,-0.1941,-0.195,-0.1956,-0.1974,-0.2014,-0.2033,-0.2058,-0.2113,-0.2072,-0.2148,-0.2163,-0.2174,-0.2165,-0.2204,-0.222,-0.2046,-0.2046,-0.2046,0,0,-0.1881,-0.1879,-0.1879,-0.1894,-0.1905,-0.1941,-0.191,-0.1939,-0.1984,-0.1949,-0.2007,-0.202,-0.2039,-0.2114,-0.2139,-0.211,-0.2194,-0.2183,-0.2193,-0.2176,-0.2212,-0.2229,-0.2244,-0.205,-0.2049,-0.2049,0,0,-0.1882,-0.1889,-0.1885,-0.1921,-0.195,-0.1973,-0.1981,-0.2003,-0.2029,-0.2089,-0.2086,-0.2136,-0.2171,-0.2216,-0.2237,-0.234,-0.2266,-0.2342,-0.2405,-0.2444,-0.2458,-0.247,-0.2393,-0.2398,-0.2352,-0.2353,-0.2353,0,-0.1886,-0.1885,-0.1897,-0.1921,-0.1963,-0.1986,-0.2025,-0.2067,-0.2109,-0.214,-0.2125,-0.2214,-0.2228,-0.2329,-0.2368,-0.2373,-0.2335,-0.2339,-0.2461,-0.2473,-0.2483,-0.2402,-0.2405,-0.2359,-0.2358,-0.2358,-0.2357,0,-0.1887,-0.1908,-0.1919,-0.196,-0.2018,-0.206,-0.213,-0.2187,-0.2214,-0.2241,-0.2334,-0.2372,-0.2414,-0.2446,-0.2435,-0.2529,-0.2454,-0.2472,-0.2414,-0.2507,-0.2415,-0.2416,-0.2368,-0.2366,-0.2364,-0.2363,0,0,-0.1827,-0.19,-0.1905,-0.1945,-0.2049,-0.209,-0.2203,-0.2292,-0.2337,-0.2409,-0.2466,-0.2564,-0.2553,-0.2576,-0.2589,-0.2631,-0.266,-0.2578,-0.2577,-0.2489,-0.2655,-0.2533,-0.252,-0.2702,-0.2704,-0.2706,-0.2543,0,-0.182,-0.1867,-0.1923,-0.2012,-0.2054,-0.2161,-0.226,-0.236,-0.2423,-0.2488,-0.2563,-0.261,-0.2616,-0.2628,-0.2686,-0.2668,-0.2675,-0.2695,-0.2585,-0.258,-0.2454,-0.2525,-0.2367,-0.2205,-0.2543,-0.2543,-0.2543,0,-0.1787,-0.1837,-0.1904,-0.2042,-0.2071,-0.2138,-0.2298,-0.2385,-0.2508,-0.2557,-0.2637,-0.2657,-0.2736,-0.272,-0.275,-0.2757,-0.2703,-0.2686,-0.268,-0.2526,-0.2463,-0.2178,-0.2194,-0.2544,-0.2544,-0.2544,-0.2544,0,-0.1722,-0.1823,-0.1878,-0.1928,-0.2085,-0.2149,-0.224,-0.2384,-0.2447,-0.2571,-0.259,-0.2706,-0.2706,-0.2746,-0.2692,-0.2723,-0.2672,-0.2714,-0.2544,-0.2529,-0.235,-0.2318,-0.2719,-0.2719,-0.2719,-0.272,-0.272,0,-0.1692,-0.1736,-0.184,-0.1878,-0.1963,-0.2096,-0.2184,-0.2298,-0.2415,-0.2453,-0.2584,-0.2599,-0.2712,-0.2691,-0.2686,-0.2585,-0.2662,-0.2541,-0.2505,-0.238,-0.2354,-0.2626,-0.2618,-0.2713,-0.2715,-0.2716,-0.2717,0,-0.1613,-0.1676,-0.174,-0.1883,-0.1924,-0.1981,-0.2125,-0.2172,-0.2301,-0.235,-0.2378,-0.2487,-0.2467,-0.2515,-0.2518,-0.251,-0.2476,-0.2405,-0.2188,-0.2133,-0.2297,-0.2297,-0.2234,-0.2228,-0.2224,-0.2221,-0.2218,0,-0.1584,-0.1598,-0.1707,-0.1725,-0.178,-0.1872,-0.1926,-0.2095,-0.2129,-0.225,-0.2239,-0.2255,-0.2244,-0.2199,-0.2197,-0.2151,-0.2263,-0.1968,-0.2045,-0.2289,-0.226,-0.2267,-0.2273,-0.1816,-0.181,-0.1806,-0.1802,0,-0.1526,-0.154,-0.1581,-0.1619,-0.1656,-0.172,-0.1795,-0.1818,-0.1976,-0.2011,-0.2023,-0.2028,-0.1983,-0.1894,-0.184,-0.1812,-0.1994,-0.1863,-0.2193,-0.198,-0.1888,-0.1863,-0.1884,-0.1757,-0.1762,-0.1765,-0.1767,-0.1769,-0.1452,-0.145,-0.147,-0.1498,-0.1534,-0.1552,-0.156,-0.1622,-0.1661,-0.1698,-0.1762,-0.1728,-0.1743,-0.1602,-0.1528,-0.1496,-0.1646,-0.163,-0.1649,-0.1672,-0.1671,-0.1579,-0.1381,-0.1383,-0.1385,-0.1387,-0.1388,0,-0.1363,-0.1351,-0.1356,-0.1375,-0.1355,-0.1425,-0.1453,-0.1431,-0.1413,-0.1459,-0.1459,-0.1339,-0.1275,-0.1297,-0.118,-0.1176,-0.1211,-0.114,-0.1198,-0.124,-0.1278,-0.1262,-0.086,-0.0859,-0.0858,-0.0856,0,0,-0.1309,-0.1257,-0.1256,-0.1188,-0.1197,-0.1147,-0.1138,-0.1113,-0.1122,-0.1082,-0.1077,-0.1186,-0.1243,-0.1045,-0.1005,-0.0911,-0.1068,-0.0867,-0.1286,-0.1394,-0.143,-0.155,-0.1569,0,0,0,0,0]},{"header":{"parameterUnit":"m.s-1","parameterCategory":2,"la1":30.2991,"la2":30.254,"lo1":-89.0895,"lo2":-89.0444,"dy":0.0017,"dx":0.0017,"nx":28,"ny":28,"refTime":"2023-10-04T21:00:00:Z","depth":"2","parameterNumber":3,"parameterNumberName":"V-component_of_CURRENTS"},"data":[0,0,0,0,0,0,0,0,0,0,0,0,0,0,0,0,0,0,0,0,0,0,0,0,0,0,0,0,0,0,0,0,0,0,0,0,0,0,0,0,0,0,0,0,0,0,0,0,0,0,0,0,0,0,0,0,0,0,0.0096,0.0097,0,0.0154,0.0155,0.0156,0.0188,0.0188,0.0188,0.0189,0.0258,0.026,0.0261,0,0,0,0,0,0,0,0,0,0,0,0,0,0.0017,0.0018,0.0096,0.0097,0.0098,0.0154,0.0155,0.0156,0.0188,0.0188,0.0188,0.0189,0.0258,0.026,0.0262,0,0,0,0,0,0,0,0,0,0,0,0,0,0.006,0.0019,0.0096,0.0121,0.0124,0.0154,0.0155,0.0156,0.0188,0.0188,0.0189,0.0189,0.0257,0.0259,0.0262,0.0273,0,0,0.027,0.0271,0,0,0,0,0,0,0,0,0.0058,0.0063,0.0117,0.012,0.0123,0.0165,0.0153,0.0196,0.0188,0.0163,0.0189,0.0189,0.0228,0.0233,0.0243,0.0276,0.0279,0.027,0.0272,0.0273,0.0273,0,0,0,0,0,0,0,0.0055,0.0061,0.0119,0.0118,0.0121,0.0131,0.0137,0.0161,0.0193,0.0165,0.0168,0.0175,0.023,0.024,0.0244,0.028,0.027,0.0272,0.0274,0.0275,0.036,0.0361,0,0,0,0,0,0,0.0049,0.0058,0.0117,0.0121,0.0091,0.0132,0.0139,0.0151,0.0193,0.02,0.0175,0.0177,0.0235,0.0241,0.0247,0.028,0.0273,0.0275,0.0276,0.036,0.036,0.0361,0,0,0,0,0,0,0.0047,0.0054,0.0115,0.0091,0.0099,0.0133,0.0146,0.0152,0.0162,0.02,0.0207,0.018,0.0236,0.0243,0.027,0.0282,0.0276,0.0278,0.0359,0.036,0.0361,0.0335,0,0,0,0,0,0,0.0044,0.0053,0.0054,0.0091,0.0101,0.0128,0.0146,0.0153,0.0167,0.0169,0.0207,0.0213,0.0237,0.0266,0.0272,0.0286,0.028,0.0358,0.0359,0.036,0.0335,0.0335,0.0335,0,0,0,0,0,0.0041,0.0039,0.0054,0.006,0.0103,0.0128,0.0134,0.0158,0.0166,0.0168,0.0197,0.0212,0.028,0.0268,0.0276,0.029,0.0357,0.0359,0.036,0.0335,0.0335,0.0335,0,0,0,0,0,0,-0.0009,0.0044,0.006,0.007,0.0096,0.0134,0.0136,0.0155,0.0178,0.018,0.0216,0.0224,0.0254,0.0276,0.0262,0.0321,0.0324,0.0327,0.0302,0.0302,0.0302,0.0281,0.0283,0,0,0,0,0,-0.0016,0.0002,0.0047,0.005,0.0067,0.0101,0.0113,0.0131,0.0159,0.0169,0.0197,0.0232,0.0268,0.0285,0.0315,0.0341,0.036,0.0359,0.0359,0.0359,0.0348,0.04,0.0403,0.0367,0.0367,0.0367,0,0,-0.0042,-0.0007,-0.0002,0.0041,0.0065,0.0074,0.0109,0.0124,0.0131,0.0173,0.0188,0.0229,0.0274,0.0307,0.0323,0.0326,0.0377,0.0361,0.036,0.035,0.0402,0.0405,0.0409,0.0368,0.0368,0.0367,0,0,-0.0077,-0.0045,-0.0037,-0.0012,0.0028,0.0048,0.0052,0.0092,0.0113,0.0135,0.0175,0.0223,0.0262,0.0309,0.0335,0.0355,0.0375,0.0366,0.0351,0.0402,0.0405,0.0408,0.0423,0.0427,0.0368,0.0368,0.0368,0,-0.0113,-0.0094,-0.0037,-0.0021,-0.0019,0.0033,0.0024,0.0059,0.0099,0.0117,0.0133,0.0221,0.0265,0.0321,0.0334,0.0355,0.037,0.0344,0.04,0.0404,0.0407,0.0422,0.0428,0.0367,0.0367,0.0367,0.0367,0,-0.0133,-0.0124,-0.0121,-0.0085,-0.0071,-0.0073,-0.002,0.0,0.0029,0.0067,0.0125,0.0197,0.0248,0.0284,0.0314,0.0369,0.0365,0.0392,0.0395,0.0409,0.0424,0.043,0.0366,0.0366,0.0366,0.0367,0,0,-0.021,-0.015,-0.0152,-0.0157,-0.0111,-0.0111,-0.0085,-0.0053,-0.0041,0.003,0.0055,0.0153,0.0201,0.0235,0.0298,0.0354,0.0401,0.0378,0.0381,0.0382,0.0483,0.0496,0.0504,0.0435,0.0436,0.0437,0.0478,0,-0.0256,-0.0255,-0.0211,-0.0241,-0.0245,-0.0194,-0.0181,-0.0137,-0.0087,-0.0043,0.0067,0.0114,0.0182,0.0211,0.0282,0.0374,0.0417,0.0386,0.0477,0.0479,0.0482,0.0512,0.0481,0.0517,0.0484,0.0485,0.0486,0,-0.0289,-0.0291,-0.0315,-0.032,-0.0318,-0.0324,-0.0308,-0.0288,-0.0191,-0.0145,-0.0059,0.0022,0.0131,0.0181,0.0338,0.0311,0.0384,0.0456,0.046,0.0483,0.0505,0.0502,0.0529,0.0496,0.0495,0.0495,0.0494,0,-0.0368,-0.0372,-0.0403,-0.0402,-0.0384,-0.0391,-0.039,-0.032,-0.0303,-0.0208,-0.0177,-0.004,0.003,0.0154,0.0316,0.0321,0.0476,0.0503,0.0577,0.0577,0.0574,0.0573,0.0592,0.0592,0.0592,0.0592,0.0592,0,-0.0428,-0.0458,-0.0443,-0.0459,-0.0515,-0.0472,-0.0498,-0.0463,-0.0398,-0.0372,-0.0238,-0.0177,0.0028,0.0153,0.0286,0.0452,0.0453,0.0572,0.0598,0.0564,0.0561,0.0564,0.056,0.0594,0.0593,0.0593,0.0593,0,-0.0493,-0.0476,-0.052,-0.0529,-0.0542,-0.0581,-0.0586,-0.0587,-0.052,-0.0479,-0.0452,-0.0279,-0.0107,0.0083,0.0292,0.0409,0.0564,0.0613,0.0543,0.0561,0.063,0.0625,0.0697,0.0698,0.0699,0.0699,0.07,0,-0.0524,-0.0544,-0.0583,-0.0617,-0.0624,-0.0668,-0.0684,-0.065,-0.0637,-0.0531,-0.0506,-0.0341,-0.019,0.0112,0.0339,0.0557,0.0574,0.0639,0.066,0.0628,0.0646,0.0639,0.0632,0.0636,0.0636,0.0636,0.0636,0,-0.0595,-0.0594,-0.0623,-0.0689,-0.0729,-0.078,-0.0797,-0.0804,-0.0738,-0.068,-0.0561,-0.0438,-0.0141,0.0127,0.0402,0.0524,0.0608,0.0646,0.0648,0.0617,0.0576,0.0591,0.0586,0.0636,0.0636,0.0636,0.0636,0.0636,-0.0642,-0.068,-0.0701,-0.0765,-0.0815,-0.0861,-0.0891,-0.087,-0.0844,-0.073,-0.0607,-0.04,-0.0141,0.0265,0.0461,0.063,0.0639,0.0691,0.0689,0.0687,0.0675,0.0639,0.0706,0.0707,0.0707,0.0707,0.0708,0,-0.0702,-0.0723,-0.0779,-0.0843,-0.0898,-0.091,-0.0938,-0.0927,-0.0878,-0.0738,-0.0593,-0.0312,-0.0009,0.0239,0.052,0.0696,0.0681,0.0707,0.0667,0.0665,0.0664,0.065,0.0676,0.0676,0.0676,0.0677,0,0,-0.0731,-0.0782,-0.0799,-0.0889,-0.0933,-0.0989,-0.1,-0.0957,-0.086,-0.0718,-0.0558,-0.0314,0.0003,0.0199,0.0418,0.0557,0.0559,0.0556,0.0564,0.0489,0.0486,0.0638,0.0613,0,0,0,0,0]}],[{"header":{"parameterUnit":"m.s-1","parameterCategory":2,"la1":30.2991,"la2":30.254,"lo1":-89.0895,"lo2":-89.0444,"dy":0.0017,"dx":0.0017,"nx":28,"ny":28,"refTime":"2023-10-04T21:00:00:Z","depth":"4","parameterNumber":2,"parameterNumberName":"U-component_of_CURRENTS"},"data":[0,0,0,0,0,0,0,0,0,0,0,0,0,0,0,0,0,0,0,0,0,0,0,0,0,0,0,0,0,0,0,0,0,0,0,0,0,0,0,0,0,0,0,0,0,0,0,0,0,0,0,0,0,0,0,0,0,0,-0.0964,-0.0965,0,-0.0999,-0.0999,-0.0998,-0.1031,-0.1032,-0.1033,-0.1034,-0.0986,-0.0984,-0.0981,0,0,0,0,0,0,0,0,0,0,0,0,0,-0.0736,-0.074,-0.0964,-0.0965,-0.0966,-0.0999,-0.0999,-0.0998,-0.1031,-0.1032,-0.1034,-0.1035,-0.0987,-0.0984,-0.0981,0,0,0,0,0,0,0,0,0,0,0,0,0,-0.0802,-0.0742,-0.0964,-0.0992,-0.0996,-0.0999,-0.0999,-0.0998,-0.1031,-0.1032,-0.1034,-0.1035,-0.0988,-0.0984,-0.0981,-0.0925,0,0,-0.097,-0.0969,0,0,0,0,0,0,0,0,-0.0799,-0.081,-0.0987,-0.099,-0.0994,-0.1019,-0.0901,-0.0972,-0.103,-0.1009,-0.1034,-0.1036,-0.0993,-0.0989,-0.0982,-0.0923,-0.0921,-0.097,-0.0968,-0.0966,-0.0965,0,0,0,0,0,0,0,-0.0794,-0.0807,-0.097,-0.0988,-0.0993,-0.0939,-0.0951,-0.0913,-0.0983,-0.1011,-0.1015,-0.1031,-0.0994,-0.0986,-0.0981,-0.092,-0.097,-0.0967,-0.0965,-0.0963,-0.0827,-0.0826,0,0,0,0,0,0,-0.0815,-0.0804,-0.0969,-0.0972,-0.0907,-0.0943,-0.0956,-0.1003,-0.0986,-0.0988,-0.103,-0.1033,-0.0991,-0.0985,-0.098,-0.1008,-0.0966,-0.0963,-0.0961,-0.0829,-0.0827,-0.0825,0,0,0,0,0,0,-0.081,-0.083,-0.0967,-0.0892,-0.0907,-0.0947,-0.0998,-0.1003,-0.1025,-0.1003,-0.1002,-0.1052,-0.0992,-0.0985,-0.0928,-0.1003,-0.0961,-0.0958,-0.0831,-0.0828,-0.0826,-0.1003,0,0,0,0,0,0,-0.0804,-0.0829,-0.0862,-0.0895,-0.0913,-0.0975,-0.0998,-0.1003,-0.1034,-0.1039,-0.102,-0.1016,-0.0993,-0.0933,-0.0925,-0.0997,-0.0955,-0.0833,-0.083,-0.0827,-0.0999,-0.1007,-0.1013,0,0,0,0,0,-0.0796,-0.0861,-0.0864,-0.0884,-0.0962,-0.0976,-0.0977,-0.1004,-0.1034,-0.1032,-0.1,-0.1018,-0.0911,-0.0928,-0.0919,-0.0992,-0.0834,-0.083,-0.0827,-0.0995,-0.1005,-0.1013,0,0,0,0,0,0,-0.0778,-0.0872,-0.0876,-0.0966,-0.0963,-0.0985,-0.1013,-0.1017,-0.0994,-0.1009,-0.0982,-0.0972,-0.0946,-0.0913,-0.0933,-0.0931,-0.0882,-0.0877,-0.1013,-0.1022,-0.1029,-0.1129,-0.0953,0,0,0,0,0,-0.0788,-0.0873,-0.0899,-0.0965,-0.0979,-0.0991,-0.1004,-0.1012,-0.1004,-0.1002,-0.0987,-0.0957,-0.0917,-0.0926,-0.0863,-0.0869,-0.0868,-0.0905,-0.0913,-0.092,-0.0986,-0.1017,-0.1038,-0.0814,-0.0814,-0.0814,0,0,-0.0801,-0.0864,-0.091,-0.0967,-0.0985,-0.1005,-0.1004,-0.1037,-0.1068,-0.0994,-0.1028,-0.0962,-0.0905,-0.09,-0.0893,-0.09,-0.0966,-0.0916,-0.0924,-0.0987,-0.1017,-0.104,-0.106,-0.0812,-0.0812,-0.0813,0,0,-0.0865,-0.0923,-0.1001,-0.1005,-0.1038,-0.1035,-0.1049,-0.1065,-0.1093,-0.1077,-0.1039,-0.1011,-0.0963,-0.0957,-0.0944,-0.0947,-0.0972,-0.0935,-0.1111,-0.114,-0.1163,-0.1182,-0.1169,-0.1186,-0.0982,-0.0983,-0.0983,0,-0.0868,-0.0973,-0.1009,-0.1057,-0.1072,-0.1058,-0.1088,-0.1112,-0.1101,-0.1133,-0.1103,-0.1055,-0.1002,-0.1039,-0.106,-0.0981,-0.0996,-0.11,-0.1163,-0.1182,-0.12,-0.1182,-0.1199,-0.0991,-0.099,-0.0989,-0.0988,0,-0.0959,-0.1034,-0.1079,-0.1144,-0.1145,-0.1174,-0.119,-0.1208,-0.1225,-0.1248,-0.127,-0.1192,-0.1173,-0.1165,-0.1135,-0.1238,-0.1203,-0.1145,-0.1173,-0.1236,-0.1208,-0.1223,-0.1002,-0.0999,-0.0997,-0.0995,0,0,-0.0985,-0.1122,-0.1135,-0.1163,-0.1192,-0.1195,-0.126,-0.1305,-0.1356,-0.1376,-0.1446,-0.1426,-0.1409,-0.1391,-0.1346,-0.1433,-0.1538,-0.1399,-0.1396,-0.1444,-0.1612,-0.147,-0.1471,-0.1531,-0.1535,-0.1538,-0.1533,0,-0.1033,-0.1156,-0.12,-0.1258,-0.1296,-0.1299,-0.1346,-0.1384,-0.1411,-0.1465,-0.15,-0.1509,-0.1492,-0.148,-0.1567,-0.1509,-0.1594,-0.1546,-0.1496,-0.1494,-0.141,-0.1489,-0.1552,-0.1543,-0.1547,-0.1549,-0.1551,0,-0.108,-0.1162,-0.1255,-0.132,-0.1335,-0.1357,-0.1399,-0.1436,-0.1527,-0.1558,-0.1627,-0.1625,-0.1722,-0.1678,-0.1748,-0.1732,-0.1721,-0.1712,-0.1708,-0.1547,-0.1382,-0.1467,-0.1577,-0.1575,-0.1573,-0.1571,-0.157,0,-0.1056,-0.1177,-0.1259,-0.1279,-0.1355,-0.1393,-0.1414,-0.1477,-0.1516,-0.1622,-0.1647,-0.1748,-0.1756,-0.1818,-0.1798,-0.1795,-0.187,-0.1803,-0.1675,-0.166,-0.1717,-0.1696,-0.1903,-0.1903,-0.1903,-0.1903,-0.1903,0,-0.1072,-0.1123,-0.1263,-0.1301,-0.135,-0.1393,-0.1441,-0.1483,-0.1553,-0.1596,-0.169,-0.172,-0.1815,-0.1848,-0.1849,-0.18,-0.1882,-0.175,-0.1679,-0.1773,-0.176,-0.1724,-0.1704,-0.1903,-0.1903,-0.1903,-0.1903,0,-0.1014,-0.1124,-0.1204,-0.1324,-0.1348,-0.1371,-0.1431,-0.1455,-0.1538,-0.1587,-0.163,-0.1727,-0.1757,-0.1808,-0.1855,-0.1803,-0.1789,-0.1754,-0.1851,-0.1775,-0.155,-0.1537,-0.1614,-0.161,-0.1606,-0.1603,-0.1601,0,-0.0978,-0.1047,-0.1198,-0.1225,-0.128,-0.133,-0.1346,-0.1433,-0.1451,-0.1563,-0.157,-0.1659,-0.1705,-0.1652,-0.1718,-0.1702,-0.1689,-0.1673,-0.1666,-0.1613,-0.1535,-0.1528,-0.1521,-0.1595,-0.1594,-0.1593,-0.1592,0,-0.0901,-0.0998,-0.1074,-0.1158,-0.1196,-0.1223,-0.1265,-0.1279,-0.1368,-0.1468,-0.1487,-0.1522,-0.1541,-0.1568,-0.1569,-0.156,-0.1683,-0.1634,-0.1641,-0.1635,-0.1589,-0.1514,-0.1512,-0.1579,-0.1581,-0.1582,-0.1583,0,-0.0811,-0.0866,-0.0999,-0.105,-0.1096,-0.1096,-0.114,-0.1164,-0.1203,-0.1339,-0.1341,-0.1424,-0.1519,-0.1491,-0.1489,-0.1472,-0.1453,-0.1423,-0.1442,-0.1457,-0.141,-0.1329,-0.1223,0,0,0,0,0,-0.07,-0.0794,-0.0859,-0.0929,-0.0973,-0.0998,-0.1063,-0.1113,-0.1225,-0.1198,-0.1269,-0.1284,-0.1301,-0.1345,-0.1292,-0.1405,-0.145,-0.1339,-0.1423,-0.1507,-0.1522,-0.1482,0,0,0,0,0,0,-0.0641,-0.0733,-0.0833,-0.0812,-0.0823,-0.0849,-0.089,-0.0967,-0.0963,-0.109,-0.1098,-0.1203,-0.1225,-0.1303,-0.1263,-0.1275,-0.1303,-0.1395,-0.1392,-0.1498,-0.1512,-0.1524,-0.1488,0,0,0,0,0]},{"header":{"parameterUnit":"m.s-1","parameterCategory":2,"la1":30.2991,"la2":30.254,"lo1":-89.0895,"lo2":-89.0444,"dy":0.0017,"dx":0.0017,"nx":28,"ny":28,"refTime":"2023-10-04T21:00:00:Z","depth":"4","parameterNumber":3,"parameterNumberName":"V-component_of_CURRENTS"},"data":[0,0,0,0,0,0,0,0,0,0,0,0,0,0,0,0,0,0,0,0,0,0,0,0,0,0,0,0,0,0,0,0,0,0,0,0,0,0,0,0,0,0,0,0,0,0,0,0,0,0,0,0,0,0,0,0,0,0,0.0048,0.0049,0,0.0103,0.0104,0.0104,0.0129,0.0129,0.0129,0.0129,0.0145,0.0146,0.0146,0,0,0,0,0,0,0,0,0,0,0,0,0,0.0009,0.0009,0.0048,0.0049,0.005,0.0103,0.0104,0.0104,0.0129,0.0129,0.0129,0.0129,0.0145,0.0145,0.0146,0,0,0,0,0,0,0,0,0,0,0,0,0,0.004,0.0009,0.0048,0.0069,0.0071,0.0103,0.0104,0.0105,0.0129,0.0129,0.0129,0.0129,0.0145,0.0145,0.0146,0.015,0,0,0.0148,0.0148,0,0,0,0,0,0,0,0,0.0039,0.0042,0.0065,0.0067,0.007,0.011,0.0096,0.0118,0.0129,0.0106,0.0129,0.0129,0.013,0.0132,0.0142,0.015,0.0151,0.0148,0.0148,0.0149,0.0149,0,0,0,0,0,0,0,0.0036,0.004,0.0069,0.0066,0.0069,0.0091,0.0095,0.0101,0.0116,0.0108,0.011,0.0118,0.0131,0.0141,0.0142,0.0151,0.0148,0.0149,0.0149,0.0149,0.0145,0.0144,0,0,0,0,0,0,0.0029,0.0037,0.0067,0.0071,0.0055,0.0092,0.0096,0.0096,0.0117,0.0121,0.0118,0.0119,0.014,0.0141,0.0143,0.0132,0.0149,0.0149,0.015,0.0145,0.0145,0.0144,0,0,0,0,0,0,0.0028,0.0031,0.0065,0.0057,0.0063,0.0092,0.0093,0.0098,0.0111,0.0125,0.0128,0.0127,0.014,0.0142,0.0147,0.0133,0.015,0.015,0.0146,0.0145,0.0144,0.012,0,0,0,0,0,0,0.0026,0.003,0.0027,0.0056,0.0063,0.0086,0.0093,0.0099,0.0116,0.0118,0.0133,0.0135,0.014,0.0146,0.0148,0.0134,0.0151,0.0147,0.0146,0.0145,0.0122,0.0119,0.0116,0,0,0,0,0,0.0024,0.0023,0.0026,0.003,0.0057,0.0086,0.0092,0.0112,0.0116,0.0124,0.013,0.0134,0.0141,0.0147,0.0149,0.0135,0.0147,0.0146,0.0145,0.0123,0.0119,0.0116,0,0,0,0,0,0,0.0005,0.0026,0.003,0.0034,0.0058,0.009,0.0101,0.0113,0.0126,0.0125,0.0135,0.0137,0.0129,0.014,0.0146,0.013,0.0142,0.0141,0.0125,0.0121,0.0119,0.0124,0.0151,0,0,0,0,0,-0.0002,-0.0002,0.0028,0.0028,0.0043,0.0071,0.0085,0.0099,0.0116,0.0122,0.0133,0.0135,0.0126,0.0131,0.0128,0.013,0.0156,0.012,0.0117,0.0115,0.0121,0.0149,0.0149,0.0141,0.0141,0.0141,0,0,-0.0013,0.0,-0.0001,0.0024,0.0045,0.0051,0.0079,0.0101,0.0096,0.012,0.0119,0.0125,0.0123,0.0116,0.0114,0.0125,0.0132,0.0114,0.0112,0.0119,0.0148,0.0149,0.015,0.014,0.014,0.014,0,0,-0.0029,-0.0017,-0.0019,0.0001,0.0031,0.0042,0.0048,0.0083,0.0091,0.0095,0.0099,0.0101,0.0104,0.0099,0.0093,0.0076,0.0111,0.0076,0.0075,0.0101,0.0103,0.0104,0.0144,0.0149,0.0081,0.0081,0.0081,0,-0.0042,-0.0049,-0.0014,-0.0005,-0.0005,0.0034,0.0026,0.0044,0.0072,0.007,0.0089,0.0085,0.0089,0.0068,0.0068,0.0068,0.0104,0.0086,0.0099,0.0101,0.0103,0.0144,0.015,0.008,0.008,0.008,0.0081,0,-0.0059,-0.0062,-0.0058,-0.0051,-0.004,-0.0038,-0.0013,-0.0006,0.0005,0.0023,0.002,0.004,0.0037,0.0039,0.0053,0.006,0.0088,0.0087,0.011,0.0103,0.0146,0.0152,0.0078,0.0079,0.0079,0.0079,0,0,-0.0105,-0.0081,-0.0083,-0.0097,-0.0071,-0.0071,-0.0077,-0.0078,-0.0089,-0.0048,-0.0056,-0.0048,-0.0015,-0.0017,0.0004,0.0045,0.0094,0.0086,0.0088,0.0131,0.0179,0.0183,0.0191,0.0109,0.011,0.011,0.0206,0,-0.014,-0.0155,-0.0134,-0.0167,-0.0176,-0.0153,-0.0167,-0.0156,-0.0138,-0.0127,-0.0089,-0.0087,-0.0044,-0.004,0.0008,0.0065,0.0111,0.0069,0.0176,0.0179,0.0187,0.0198,0.0113,0.0211,0.0213,0.0214,0.0215,0,-0.017,-0.0185,-0.0218,-0.0242,-0.0244,-0.0259,-0.0288,-0.0291,-0.0256,-0.0233,-0.0199,-0.0155,-0.0104,-0.0062,0.0051,0.0032,0.0107,0.0166,0.0171,0.0188,0.0195,0.0218,0.0228,0.0227,0.0226,0.0225,0.0224,0,-0.0231,-0.0249,-0.0292,-0.0294,-0.0304,-0.0328,-0.0344,-0.0326,-0.0331,-0.0293,-0.0275,-0.0208,-0.0163,-0.0068,0.0069,0.0064,0.0217,0.0207,0.0281,0.0283,0.0262,0.026,0.029,0.029,0.029,0.029,0.029,0,-0.028,-0.0313,-0.0326,-0.0346,-0.0411,-0.0391,-0.0438,-0.0435,-0.0412,-0.0403,-0.033,-0.0289,-0.0152,-0.0044,0.0063,0.0205,0.0206,0.029,0.0307,0.025,0.0245,0.0268,0.0264,0.0293,0.0293,0.0292,0.0291,0,-0.0321,-0.0328,-0.0379,-0.0415,-0.0433,-0.0477,-0.0502,-0.0518,-0.049,-0.047,-0.0456,-0.0335,-0.0191,-0.005,0.0122,0.0196,0.0319,0.0369,0.0318,0.0328,0.0369,0.0362,0.0442,0.0443,0.0444,0.0445,0.0445,0,-0.0334,-0.0365,-0.0433,-0.047,-0.0487,-0.054,-0.0566,-0.0562,-0.0559,-0.0488,-0.047,-0.0331,-0.0234,0.0015,0.0155,0.0344,0.037,0.0427,0.0384,0.0376,0.0385,0.0377,0.037,0.0446,0.0446,0.0447,0.0447,0,-0.0367,-0.0395,-0.044,-0.0519,-0.0564,-0.0613,-0.0641,-0.0644,-0.061,-0.0585,-0.0464,-0.033,-0.0156,0.0027,0.0187,0.0318,0.0378,0.0435,0.0434,0.0394,0.0382,0.0388,0.038,0.045,0.0449,0.0449,0.0449,0,-0.0384,-0.0432,-0.049,-0.0561,-0.062,-0.0655,-0.0674,-0.0643,-0.0635,-0.0543,-0.0494,-0.0311,-0.0194,0.0016,0.0159,0.0291,0.0308,0.0329,0.0333,0.0332,0.0266,0.0233,0.0277,0,0,0,0,0,-0.039,-0.045,-0.0523,-0.0596,-0.0651,-0.0682,-0.0703,-0.0699,-0.0659,-0.0578,-0.0535,-0.0372,-0.0135,-0.0026,0.0106,0.0151,0.0314,0.0306,0.0336,0.0465,0.0461,0.0402,0,0,0,0,0,0,-0.0397,-0.0468,-0.0524,-0.06,-0.0647,-0.0699,-0.0713,-0.0689,-0.0634,-0.0572,-0.0441,-0.0359,-0.0128,-0.021,0.0105,0.0146,0.0178,0.0423,0.0425,0.0466,0.0463,0.0461,0.0399,0,0,0,0,0]}]]